This demonstration page uses our WeatherBlox Daily Observations layout. Learn more.

Left ArrowRight Arrow

44.8408, -93.29828

Hourly Observations for March 21, 2015

Temp ( °F °C ) Dew Point ( °F °C ) Humidity (%) Winds ( mph kmh ) Pressure ( in mb ) Visibility ( mi km ) Precip ( " mm )
12:53 am 00:53 Partly Cloudy 36 2.2 30 -1.1 79 79 N 16 26 30.11 1020 10 16 0.00 0.00
1:53 am 01:53 Mostly Clear 35 1.7 19 -7.2 52 52 NNW 17 28 30.13 1020 10 16 0.00 0.00
2:53 am 02:53 Partly Cloudy 33 0.6 20 -6.7 58 58 NNW 13 20 30.16 1021 10 16 0.00 0.00
3:53 am 03:53 Partly Cloudy 31 -0.6 20 -6.7 64 64 NNW 16 26 30.18 1022 10 16 0.00 0.00
4:53 am 04:53 Mostly Clear 30 -1.1 18 -7.8 61 61 N 15 24 30.21 1023 10 16 0.00 0.00
5:53 am 05:53 Clear 28 -2.2 9 -12.8 44 44 N 14 22 30.23 1024 10 16 0.00 0.00
6:53 am 06:53 Partly Cloudy 27 -2.8 5 -15 39 39 NNW 10 17 30.26 1025 10 16 0.00 0.00
7:53 am 07:53 Partly Cloudy 27 -2.8 5 -15 39 39 N 12 19 30.28 1025 10 16 0.00 0.00
8:53 am 08:53 Partly Cloudy 28 -2.2 6 -14.4 39 39 NNW 12 19 30.30 1026 10 16 0.00 0.00
9:53 am 09:53 Partly Cloudy 29 -1.7 4 -15.6 34 34 N 13 20 30.31 1027 10 16 0.00 0.00
10:53 am 10:53 Mostly Cloudy 32 0 5 -15 32 32 NNW 12 19 30.33 1027 10 16 0.00 0.00
11:53 am 11:53 Mostly Cloudy 32 0 0 -17.8 25 25 N 9 15 30.35 1028 10 16 0.00 0.00
12:53 pm 12:53 Partly Cloudy 35 1.7 -3 -19.4 19 19 NW 9 15 30.33 1027 10 16 0.00 0.00
1:53 pm 13:53 Mostly Cloudy 37 2.8 -2 -18.9 19 19 N 10 17 30.33 1027 10 16 0.00 0.00
2:53 pm 14:53 Mostly Cloudy 38 3.3 1 -17.2 21 21 NW 9 15 30.32 1027 10 16 0.00 0.00
3:53 pm 15:53 Mostly Cloudy 37 2.8 1 -17.2 22 22 N 8 13 30.30 1026 10 16 0.00 0.00
4:53 pm 16:53 Cloudy 37 2.8 0 -17.8 20 20 NNW 6 9 30.29 1026 10 16 0.00 0.00
5:53 pm 17:53 Cloudy 37 2.8 2 -16.7 22 22 NNE 7 11 30.28 1026 10 16 0.00 0.00
6:53 pm 18:53 Cloudy 36 2.2 5 -15 27 27 NE 12 19 30.27 1025 10 16 0.00 0.00
7:53 pm 19:53 Mostly Cloudy 35 1.7 5 -15 28 28 NNE 8 13 30.26 1025 10 16 0.00 0.00
8:53 pm 20:53 Cloudy 34 1.1 8 -13.3 34 34 NE 10 17 30.28 1026 10 16 0.00 0.00
9:53 pm 21:53 Partly Cloudy 32 0 8 -13.3 36 36 NNE 7 11 30.29 1026 10 16 0.00 0.00
10:53 pm 22:53 Partly Cloudy 31 -0.6 9 -12.8 40 40 NNE 7 11 30.31 1026 10 16 0.00 0.00
11:53 pm 23:53 Partly Cloudy 31 -0.6 9 -12.8 40 40 VRB 6 9 30.31 1027 10 16 0.00 0.00

Powered by AerisWeather